Location: Ermatingen
(47.6706°N, 9.0857°E)
Time: 05:56:36
(UTC+00:00)

Cosmos 1072 Rocket - Pass Details

Date: 18 September 2020
Orbit: 949 x 1008 km, 82.9° (Epoch: 27 October)

Event Time Altitude Azimuth Distance (km) Brightness Sun altitude
Rises 18:47:39 0° 183° (S) 3,645 7.3 -13.8°
Reaches altitude 10° 18:50:07 10° 182° (S) 2,711 6.7 -14.2°
Maximum altitude 18:56:21 80° 96° (E) 1,003 4.4 -15.2°
Drops below altitude 10° 19:02:42 10° 11° (N) 2,771 7.0 -16.2°
Sets 19:05:15 0° 10° (N) 3,731 7.7 -16.6°
